Location: Bidwell Hollow
(37.7387°N, 90.1707°W)
Time: 13:37:40
(UTC+00:00)

Tiros 1 despin weight - Pass Details

Date: 19 May 2026
Orbit: 554 x 591 km, 48.2° (Epoch: 6 June)

Event Time Altitude Azimuth Distance (km) Brightness Sun altitude
Rises 12:10:49 0° 294° (WNW) 2,754 ? 14.6°
Reaches altitude 10° 12:13:37 10° 312° (NW) 1,851 ? 15.1°
Maximum altitude 12:16:42 19° 359° (N) 1,348 ? 15.7°
Drops below altitude 10° 12:19:46 10° 46° (NE) 1,839 ? 16.3°
Sets 12:22:32 0° 65° (ENE) 2,730 ? 16.8°
